Plymouth, NH

11:56 PM EST on November 19, 2019 (GMT -0500)
Plymouth

Weather History for K1P1 - October, 2019

Change the Weather History Date:

Monday, October 21, 2019

  Actual Average (WUND) Record (WUND)
Temperature  
Mean Temperature 52 °F -  
Max Temperature 64 °F - - (-1)
Min Temperature 39 °F - - (-1)
Degree Days  
Heating Degree Days 14    
Growing Degree Days 2 (Base 50)    
Moisture  
Dew Point 44 °F    
Average Humidity 88    
Maximum Humidity 99    
Minimum Humidity 46    
Precipitation  
Precipitation 0.00 in - - ()
Sea Level Pressure  
Sea Level Pressure 30.12 in    
Wind  
Wind Speed 1 mph ()    
Max Wind Speed 7 mph    
Max Gust Speed -    
Visibility 5.1 miles    
Events Fog    
Averages and records for this station are not official NWS values.
T = Trace of Precipitation, MM = Missing Value Source: Averaged Metar Reports

Daily Weather History Graph

Daily Weather History Graph

Search for Another Location

Airport or City:

Astronomy

Oct. 21, 2019 Rise Set
Actual Time 7:08 AM EDT 5:54 PM EDT
Civil Twilight 6:39 AM EDT 6:23 PM EDT
Nautical Twilight 6:05 AM EDT 6:56 PM EDT
Astronomical Twilight 5:32 AM EDT 7:29 PM EDT
Moon 11:59 PM EDT (10/21) 2:31 PM EDT (10/21)
Length of Visible Light 11h 44m
Length of Day
10h 45m
Waning Gibbous, 48% of the Moon is Illuminated
Oct 21
Waning Gibbous
Oct 27
New
Nov 4
First Quarter
Nov 12
Full
Nov 19
Last Quarter

Hourly Weather History & Observations

Time (EDT) Temp. Windchill Dew Point Humidity Pressure Visibility Wind Dir Wind Speed Gust Speed Precip Events Conditions
12:15 AM 45.5 °F - 44.6 °F 97% 30.07 in 4.0 mi Calm Calm - N/A   Overcast
12:35 AM 45.3 °F - 44.6 °F 97% 30.07 in 4.0 mi Calm Calm - N/A   Overcast
12:55 AM 45.1 °F - 44.6 °F 98% 30.07 in 4.0 mi Calm Calm - N/A   Overcast
1:15 AM 45.1 °F - 44.6 °F 98% 30.08 in 5.0 mi Calm Calm - N/A   Overcast
1:35 AM 45.1 °F - 44.6 °F 98% 30.07 in 3.0 mi Calm Calm - N/A   Overcast
1:55 AM 45.1 °F - 44.6 °F 98% 30.07 in 2.5 mi Calm Calm - N/A   Overcast
2:15 AM 45.0 °F - 44.6 °F 99% 30.07 in 2.5 mi Calm Calm - N/A   Overcast
2:35 AM 45.1 °F - 44.6 °F 98% 30.08 in 7.0 mi Calm Calm - N/A   Overcast
2:55 AM 45.1 °F - 44.6 °F 98% 30.07 in 10.0 mi Calm Calm - N/A   Overcast
3:15 AM 45.0 °F - 44.4 °F 98% 30.07 in 7.0 mi Calm Calm - N/A   Overcast
3:35 AM 44.6 °F 43.1 °F 43.9 °F 97% 30.07 in 4.0 mi WNW 3.5 mph - N/A   Overcast
3:55 AM 44.1 °F 41.5 °F 43.7 °F 99% 30.07 in 1.2 mi West 4.6 mph - N/A   Overcast
4:15 AM 43.7 °F 40.3 °F 43.0 °F 97% 30.08 in 1.0 mi NW 5.8 mph - N/A   Overcast
4:35 AM 43.7 °F - 43.0 °F 97% 30.08 in 1.5 mi Calm Calm - N/A   Overcast
4:55 AM 43.7 °F - 43.0 °F 97% 30.09 in 1.0 mi Calm Calm - N/A   Overcast
5:15 AM 43.2 °F 41.5 °F 42.8 °F 99% 30.09 in 1.2 mi NNW 3.5 mph - N/A   Overcast
5:35 AM 43.0 °F 41.3 °F 42.4 °F 98% 30.09 in 1.0 mi NW 3.5 mph - N/A   Overcast
5:55 AM 42.8 °F 40.1 °F 42.1 °F 97% 30.09 in 1.0 mi WNW 4.6 mph - N/A   Overcast
6:15 AM 42.4 °F 40.7 °F 41.9 °F 98% 30.11 in 1.8 mi NW 3.5 mph - N/A   Overcast
6:35 AM 42.4 °F - 41.9 °F 98% 30.11 in 1.8 mi Calm Calm - N/A   Overcast
6:55 AM 42.1 °F - 41.9 °F 99% 30.12 in 7.0 mi Calm Calm - N/A   Overcast
7:15 AM 41.9 °F 40.0 °F 41.4 °F 98% 30.12 in 4.0 mi WNW 3.5 mph - N/A   Overcast
7:35 AM 41.7 °F 38.0 °F 41.4 °F 99% 30.13 in 4.0 mi WNW 5.8 mph - N/A   Overcast
7:55 AM 41.5 °F 38.6 °F 41.2 °F 99% 30.14 in 4.0 mi WNW 4.6 mph - N/A   Overcast
8:15 AM 41.7 °F 38.8 °F 41.4 °F 99% 30.14 in 7.0 mi WNW 4.6 mph - N/A   Overcast
8:35 AM 41.9 °F 39.0 °F 41.4 °F 98% 30.15 in 3.0 mi NW 4.6 mph - N/A   Overcast
8:55 AM 41.5 °F 39.6 °F 41.0 °F 98% 30.14 in 1.2 mi NW 3.5 mph - N/A   Overcast
9:15 AM 41.9 °F 37.5 °F 41.4 °F 98% 30.14 in 1.2 mi NW 6.9 mph - N/A   Overcast
9:35 AM 41.9 °F 40.0 °F 41.4 °F 98% 30.14 in 2.5 mi WNW 3.5 mph - N/A   Overcast
9:55 AM 42.3 °F 37.9 °F 41.9 °F 99% 30.14 in 2.0 mi NW 6.9 mph - N/A   Overcast
10:15 AM 43.2 °F 40.5 °F 42.6 °F 98% 30.14 in 7.0 mi NW 4.6 mph - N/A   Overcast
10:35 AM 43.9 °F - 43.0 °F 97% 30.14 in 7.0 mi Calm Calm - N/A   Overcast
10:55 AM 45.1 °F - 43.5 °F 94% 30.14 in 10.0 mi Calm Calm - N/A   Overcast
11:15 AM 47.3 °F - 44.6 °F 90% 30.14 in 10.0 mi Calm Calm - N/A   Overcast
11:35 AM 48.0 °F - 44.4 °F 87% 30.14 in 10.0 mi Calm Calm - N/A   Scattered Clouds
11:55 AM 49.6 °F - 45.3 °F 85% 30.14 in 10.0 mi Calm Calm - N/A   Clear
12:15 PM 52.2 °F - 46.0 °F 80% 30.14 in 10.0 mi Calm Calm - N/A   Clear
12:35 PM 54.5 °F - 46.4 °F 74% 30.12 in 10.0 mi Calm Calm - N/A   Clear
12:55 PM 56.7 °F - 45.7 °F 67% 30.12 in 10.0 mi Calm Calm - N/A   Clear
1:15 PM 58.3 °F - 45.5 °F 62% 30.11 in 10.0 mi Calm Calm - N/A   Clear
1:35 PM 59.5 °F - 46.0 °F 61% 30.10 in 10.0 mi Calm Calm - N/A   Clear
1:55 PM 60.8 °F - 44.4 °F 55% 30.09 in 10.0 mi Calm Calm - N/A   Clear
2:15 PM 61.2 °F - 44.4 °F 54% 30.09 in 10.0 mi Calm Calm - N/A   Clear
2:35 PM 62.2 °F - 45.5 °F 54% 30.08 in 7.0 mi Calm Calm - N/A   Clear
2:55 PM 62.6 °F - 45.3 °F 53% 30.09 in 10.0 mi Calm Calm - N/A   Clear
3:15 PM 63.0 °F - 43.0 °F 48% 30.09 in 10.0 mi West 3.5 mph - N/A   Clear
3:35 PM 63.5 °F - 43.7 °F 48% 30.09 in 10.0 mi NW 3.5 mph - N/A   Clear
3:55 PM 63.7 °F - 45.1 °F 51% 30.09 in 10.0 mi Calm Calm - N/A   Clear
4:15 PM 63.7 °F - 43.2 °F 47% 30.09 in 10.0 mi Calm Calm - N/A   Clear
4:35 PM 64.2 °F - 42.8 °F 46% 30.09 in 10.0 mi Calm Calm - N/A   Clear
4:55 PM 62.2 °F - 50.2 °F 65% 30.10 in 10.0 mi Calm Calm - N/A   Clear
5:15 PM 58.3 °F - 49.1 °F 71% 30.11 in 10.0 mi Calm Calm - N/A   Clear
5:35 PM 54.0 °F - 48.7 °F 82% 30.12 in 10.0 mi Calm Calm - N/A   Clear
5:55 PM 51.4 °F - 47.5 °F 86% 30.13 in 5.0 mi Calm Calm - N/A   Clear
6:15 PM 50.0 °F - 47.8 °F 92% 30.13 in 10.0 mi Calm Calm - N/A   Clear
6:55 PM 47.7 °F - 46.4 °F 95% 30.15 in 10.0 mi Calm Calm - N/A   Clear
7:15 PM 46.8 °F - 45.5 °F 95% 30.16 in 7.0 mi Calm Calm - N/A   Clear
7:35 PM 45.5 °F - 44.6 °F 97% 30.16 in 1.2 mi Calm Calm - N/A   Mist
7:55 PM 45.0 °F - 44.2 °F 97% 30.15 in 0.5 mi Calm Calm - N/A Fog Fog
8:15 PM 44.6 °F - 43.7 °F 97% 30.15 in 5.0 mi Calm Calm - N/A   Clear
8:35 PM 43.5 °F - 43.0 °F 98% 30.15 in 0.2 mi Calm Calm - N/A Fog Fog
8:55 PM 42.8 °F - 42.3 °F 98% 30.16 in 0.2 mi Calm Calm - N/A Fog Fog
9:15 PM 41.7 °F - 41.2 °F 98% 30.18 in 0.8 mi Calm Calm - N/A   Mostly Cloudy
9:35 PM 41.2 °F - 41.0 °F 99% 30.18 in 0.5 mi Calm Calm - N/A Fog Fog
9:55 PM 40.3 °F - 39.9 °F 99% 30.19 in 0.5 mi Calm Calm - N/A Fog Fog
10:15 PM 39.0 °F - 38.5 °F 98% 30.19 in 0.5 mi Calm Calm - N/A Fog Fog
10:35 PM 39.2 °F - 39.0 °F 99% 30.19 in 0.5 mi Calm Calm - N/A Fog Fog
10:55 PM 40.1 °F - 39.7 °F 99% 30.17 in 0.2 mi Calm Calm - N/A Fog Fog
11:15 PM 40.1 °F - 39.7 °F 99% 30.18 in 0.2 mi Calm Calm - N/A Fog Fog
11:35 PM 40.3 °F - 40.1 °F 99% 30.19 in 0.2 mi Calm Calm - N/A Fog Fog
11:55 PM 41.0 °F - 40.5 °F 98% 30.19 in 0.2 mi Calm Calm - N/A Fog Fog